Wind_Speed
22 21 21 21 22 21 21 21 21 22 22 22 21 19 19 19 19 19 20 22 24 24 23 23 23 23 21 17 14 10 8 6 5 4 6 9 12 11 10 11 10 8 8 10 12 11 11 11 10 10 9 8 7 7 7 7 7 8 8 8 9 9
22 21 21 21 21 21 21 21 22 23 23 22 20 19 19 19 19 20 21 23 25 24 23 23 23 23 20 17 15 12 9 7 5 4 5 8 11 11 10 11 11 10 8 10 11 11 12 12 11 10 10 9 8 9 9 9 9 10 10 10 11 11
25 23 22 21 21 20 20 21 22 23 22 21 20 20 19 20 21 22 23 25 25 24 23 22 22 22 20 17 16 14 10 8 6 5 5 6 9 11 11 10 11 11 10 11 11 11 12 12 11 11 10 9 9 10 10 10 10 11 12 12 13 13
26 24 22 21 20 20 20 21 22 22 22 21 21 20 20 21 22 24 24 25 25 24 22 22 21 21 19 17 16 15 12 9 7 6 5 6 8 11 11 10 10 10 11 12 11 11 12 12 12 11 10 10 10 10 11 11 11 11 13 14 14 14
25 23 21 21 21 20 21 22 22 22 22 21 22 22 22 23 24 25 25 25 25 24 22 21 20 20 18 18 17 17 14 10 8 7 6 6 7 9 11 11 10 11 11 12 12 12 13 12 11 11 11 10 10 11 12 12 11 11 12 14 14 14
23 23 21 21 21 21 22 22 22 23 23 23 23 23 23 24 25 25 25 25 24 23 22 21 20 19 18 18 18 17 15 13 10 9 8 7 8 8 10 11 11 11 12 12 12 13 14 14 12 11 11 10 9 10 11 12 11 11 12 13 13 14
21 23 22 20 19 20 22 22 22 23 23 24 24 24 24 24 25 25 26 26 24 23 22 21 20 19 18 19 19 18 17 15 13 10 9 8 8 8 9 11 12 12 12 13 13 13 14 14 13 11 11 10 10 9 9 10 10 11 11 12 12 13
21 22 22 19 18 19 22 22 22 22 22 23 24 24 24 24 25 26 27 26 25 24 23 21 19 18 18 19 19 18 18 17 14 12 10 9 9 9 9 11 12 13 13 14 14 14 15 14 13 12 11 10 10 10 10 10 10 11 11 11 12 12
19 21 22 19 18 19 22 23 23 22 21 23 24 24 24 25 26 28 28 27 27 26 23 21 19 18 18 20 20 19 19 18 16 13 11 10 10 10 9 10 12 13 14 14 15 15 15 14 13 12 11 10 11 11 10 10 10 11 11 11 11 11
17 19 20 20 19 19 21 23 23 23 23 24 25 25 25 25 25 27 29 28 28 26 23 21 20 19 20 21 21 20 20 19 17 15 13 11 11 10 9 10 12 13 14 15 15 15 15 14 13 12 11 11 12 11 11 11 11 11 11 11 11 11
16 17 18 19 19 19 19 20 22 23 24 25 25 24 24 24 24 25 27 28 27 26 24 22 21 20 21 21 21 21 21 19 17 16 14 12 11 10 10 11 13 14 14 15 15 15 14 13 13 12 12 12 12 12 11 11 11 12 12 12 12 12
15 15 16 16 17 17 17 19 22 25 27 28 27 26 25 25 24 24 25 26 26 25 23 22 21 21 21 21 22 22 21 20 18 16 14 13 11 11 11 11 13 14 14 14 14 14 13 13 13 12 12 12 12 12 11 11 12 12 12 12 12 12
13 14 15 16 16 17 17 18 21 24 26 27 28 27 27 26 26 26 25 25 26 25 22 21 21 20 20 21 22 22 23 21 18 16 15 13 12 12 12 12 12 13 13 14 13 13 13 13 13 13 13 13 12 12 12 12 12 12 12 12 12 13
13 14 16 17 17 16 15 15 17 18 19 21 22 24 25 26 26 27 26 25 25 24 21 20 20 19 19 20 22 23 24 22 19 17 16 15 14 14 13 12 12 12 13 13 12 12 12 13 13 13 13 13 13 12 13 13 12 11 11 12 12 13
14 15 17 18 18 18 16 16 18 18 18 17 17 19 23 26 26 25 25 25 25 24 22 21 20 19 19 20 22 24 24 23 21 18 17 17 17 17 16 14 13 12 12 12 12 12 12 13 13 14 14 14 13 13 13 13 12 11 11 12 12 13
14 15 17 18 18 18 18 20 22 23 23 21 20 20 23 25 25 23 22 23 23 23 22 21 21 19 19 20 22 23 24 23 21 19 18 18 18 18 18 17 14 12 12 12 12 12 12 13 14 14 14 14 13 14 14 13 11 11 11 11 12 13
13 14 16 17 18 19 19 20 22 23 25 25 23 21 21 20 20 20 20 22 23 23 22 22 22 20 20 20 22 23 24 22 21 19 18 18 18 18 19 18 15 13 13 13 13 13 13 14 14 14 14 14 14 14 14 12 11 11 11 12 12 12
14 14 16 17 18 20 20 20 20 21 23 23 21 20 20 16 16 18 20 21 21 22 22 22 22 21 20 20 22 23 23 22 21 19 19 18 18 18 18 18 15 14 14 14 13 13 14 14 14 15 14 14 14 14 13 13 11 11 12 13 12 12
18 17 17 18 18 19 20 20 20 21 21 20 17 17 18 16 15 17 19 19 20 21 21 21 21 21 21 21 21 22 23 22 21 20 19 18 17 17 18 17 15 14 14 14 14 14 14 14 15 15 15 15 15 14 13 13 12 12 12 12 12 12
20 19 19 19 18 18 19 20 20 20 20 17 14 14 15 16 15 17 18 18 20 21 20 21 21 20 20 20 20 21 21 22 22 22 21 19 17 17 18 17 15 14 14 15 15 15 15 15 15 15 15 14 14 15 14 13 13 13 13 12 12 12
20 20 21 20 18 18 18 19 19 19 18 16 14 12 13 15 17 16 16 16 18 19 20 20 20 20 19 19 19 19 20 21 23 23 22 20 17 18 19 18 17 16 15 15 16 15 15 15 15 15 15 14 14 15 14 14 14 14 13 13 13 12
19 20 20 19 18 18 18 18 19 19 18 16 15 12 11 14 17 16 15 15 16 18 19 20 20 20 20 20 20 19 20 21 23 23 22 20 18 19 20 20 19 18 16 15 16 16 15 16 16 15 14 14 14 15 15 15 15 14 14 14 13 13
15 16 18 19 19 19 18 18 19 19 19 18 16 13 10 11 14 15 15 16 17 18 19 20 21 22 22 21 22 21 20 22 23 23 22 20 19 20 21 20 20 19 17 17 17 17 16 16 16 15 15 15 15 15 15 15 15 15 15 14 14 14
16 18 19 18 18 20 20 19 19 19 19 20 19 16 11 9 10 12 14 17 18 18 20 22 23 22 21 21 22 21 20 22 24 23 22 20 20 20 21 20 19 18 18 18 18 18 16 16 16 16 16 16 16 16 16 15 15 16 15 15 15 14
17 18 19 16 16 17 19 21 22 21 20 20 20 18 15 13 11 11 14 16 17 18 21 23 24 23 22 22 23 22 21 22 24 23 21 20 20 20 21 20 19 18 18 19 19 18 17 18 17 17 18 18 17 17 16 16 17 17 16 16 16 15
18 18 18 16 17 15 14 17 22 23 23 21 20 19 19 18 17 16 16 16 17 20 22 23 24 24 24 24 24 23 22 23 24 22 20 20 20 20 21 21 21 20 20 20 18 18 19 19 18 18 19 19 18 17 17 17 18 18 17 16 16 15
21 21 22 20 20 15 10 11 16 21 24 24 23 21 21 21 23 22 18 16 17 21 24 24 24 24 25 25 25 24 23 24 24 22 20 20 21 21 22 22 22 21 21 20 18 19 20 19 19 19 19 19 19 19 18 18 19 19 18 16 16 15
22 23 24 22 18 15 12 10 11 15 19 24 26 25 24 24 23 21 17 17 19 22 25 26 26 26 26 25 25 25 25 25 25 24 22 22 22 21 22 22 21 22 23 22 21 21 20 20 19 20 19 20 20 20 20 20 20 20 19 17 16 16
22 23 25 22 17 15 14 13 12 14 16 20 26 28 28 26 23 19 17 20 22 22 24 25 26 26 24 25 26 26 26 26 26 25 24 24 23 22 22 22 21 23 25 24 23 22 21 21 19 19 20 20 21 22 22 22 21 20 19 18 17 17
22 24 26 27 22 17 17 18 17 17 18 21 25 30 30 28 26 23 21 23 24 23 23 24 26 25 24 25 28 28 27 27 27 27 26 25 24 23 23 23 23 24 25 25 24 23 23 22 19 19 20 22 22 23 22 22 21 20 20 19 18 18
22 23 25 27 28 25 23 22 20 20 23 25 27 30 31 30 29 26 25 27 27 25 25 26 26 26 25 26 27 28 28 27 27 26 26 25 25 24 25 25 24 25 26 26 25 24 24 23 20 20 21 23 23 23 22 22 21 21 20 19 19 19
23 24 24 25 27 29 27 23 22 23 26 28 31 33 33 30 29 28 27 29 28 25 26 27 28 27 27 27 28 28 27 27 27 26 26 26 27 27 27 26 25 26 27 27 25 24 24 23 21 21 22 22 23 22 22 22 22 21 20 20 20 19
25 24 25 27 26 27 27 24 24 26 28 30 32 33 33 30 29 29 29 30 28 25 26 28 28 28 28 28 28 29 28 28 28 28 28 29 30 29 28 27 26 27 27 26 25 24 24 23 22 22 22 22 22 22 22 22 23 22 21 20 20 20
25 25 26 28 27 26 27 28 29 30 31 31 31 31 30 31 33 32 31 31 30 27 27 29 30 30 30 29 29 30 29 28 28 29 29 31 33 30 28 28 28 30 29 26 26 26 25 23 23 23 23 22 21 22 22 23 23 22 21 21 20 20
26 26 27 29 29 28 28 31 33 33 33 33 32 30 28 29 33 34 32 32 32 30 30 32 33 32 32 32 30 30 29 28 29 29 29 31 32 31 30 30 30 32 30 27 28 27 25 24 24 23 23 22 21 22 22 23 23 22 22 21 21 21
28 29 30 31 32 31 31 32 33 34 34 34 33 30 28 27 29 32 33 32 32 32 32 34 36 35 33 33 32 30 29 29 29 30 29 30 31 32 32 32 31 31 30 30 29 27 26 25 24 23 23 22 21 22 22 23 22 22 22 22 22 22
29 29 31 31 30 31 31 31 31 33 33 33 32 30 28 27 28 31 32 32 32 33 33 34 37 37 35 33 33 32 30 29 29 30 30 29 30 33 34 33 32 31 32 31 30 28 26 26 24 23 23 23 22 22 22 22 22 22 22 22 23 23
Wind_Direction
302 294 288 284 280 276 273 269 263 260 259 261 268 271 270 273 278 283 288 290 291 294 298 299 299 301 303 297 289 283 273 269 268 272 299 304 303 301 295 293 292 290 294 296 298 302 301 295 292 290 281 274 273 268 270 277 278 279 283 284 283 281
302 293 287 282 275 270 268 267 264 262 262 265 270 270 271 276 280 285 289 290 292 294 297 298 300 301 298 290 285 280 267 258 254 254 279 296 297 295 289 287 288 286 287 290 293 296 295 290 287 286 281 276 273 269 266 269 271 274 279 285 288 287
299 292 286 279 271 266 265 264 263 263 264 268 270 271 274 278 282 286 288 289 291 293 295 298 300 299 293 284 280 276 265 254 247 244 260 282 288 288 284 282 284 285 287 287 287 289 288 285 283 280 278 277 276 272 268 267 269 272 277 284 288 289
293 289 285 276 267 263 261 261 262 263 266 269 270 272 274 276 280 283 285 287 289 290 293 296 299 297 289 279 275 274 266 256 247 242 248 262 274 279 279 276 277 280 283 284 284 284 283 281 276 271 271 274 277 276 274 273 271 273 277 282 286 288
288 286 281 274 267 263 261 261 263 263 265 267 267 269 270 272 275 278 282 285 286 287 289 292 295 294 285 275 273 273 267 261 252 245 244 248 258 267 271 270 268 270 275 278 279 280 281 280 273 266 264 268 275 278 277 276 275 276 279 282 285 288
283 282 278 273 271 269 269 270 272 271 268 266 265 266 268 270 273 276 280 281 282 283 285 287 290 289 279 271 273 272 268 265 259 252 247 244 246 250 259 263 264 266 270 271 272 274 277 278 275 268 265 267 276 279 276 276 278 279 279 281 284 287
278 277 276 273 272 272 273 276 281 281 275 269 265 267 270 272 275 278 279 279 279 279 280 282 284 283 273 267 271 270 266 267 264 260 254 249 243 236 244 255 260 265 267 267 266 269 272 274 274 270 267 272 279 278 276 277 279 278 277 279 283 287
279 276 275 272 270 270 270 274 280 283 280 274 270 271 273 275 276 279 279 276 274 273 276 279 279 275 267 265 269 268 265 265 265 264 260 252 241 225 228 243 254 261 264 264 264 266 270 273 275 272 270 276 279 279 280 280 279 277 277 279 283 288
284 280 278 273 267 264 264 269 275 279 280 278 276 276 277 277 278 281 280 274 270 270 272 274 273 268 262 263 267 266 264 263 264 266 261 249 233 217 219 234 248 255 259 260 262 264 267 270 272 273 275 278 279 281 284 282 280 280 281 282 285 290
287 282 279 273 267 263 263 267 274 279 282 281 279 279 278 278 280 282 279 271 267 268 270 269 266 263 259 261 265 265 262 260 261 264 262 252 233 216 216 231 242 248 251 255 258 261 264 266 268 270 274 277 279 283 285 283 280 280 283 286 290 295
294 288 281 275 271 269 270 275 281 283 282 281 280 279 277 276 282 284 278 270 266 268 270 266 262 259 256 258 263 263 259 256 257 261 264 258 239 220 217 228 236 240 245 251 256 261 264 265 264 266 270 273 276 280 282 281 279 278 280 286 293 298
302 294 289 284 277 274 279 285 285 283 279 275 274 275 273 274 280 284 280 270 265 267 268 265 262 259 255 257 262 261 256 252 253 257 261 260 242 223 219 225 233 238 244 250 255 261 263 262 260 261 265 268 273 275 277 278 277 277 279 286 294 298
300 291 287 284 279 277 283 286 286 283 279 274 269 268 268 270 274 278 278 268 262 263 264 263 263 260 258 261 264 260 254 251 251 252 255 258 245 229 223 227 233 238 244 249 254 258 259 257 255 258 262 265 268 270 271 274 276 277 281 288 294 297
287 281 278 278 277 277 279 285 293 296 292 283 274 269 268 270 274 274 270 263 259 260 261 261 261 261 260 263 264 259 254 251 250 250 252 255 250 239 233 232 234 238 243 249 252 253 253 251 250 255 259 261 262 264 268 273 276 277 282 289 292 295
281 277 274 274 275 275 273 279 292 300 302 297 289 283 277 272 274 273 263 256 255 256 258 260 259 259 260 262 261 256 254 252 251 253 255 253 250 246 243 238 236 237 240 245 249 249 247 244 247 252 256 258 258 260 266 272 276 278 282 286 288 290
283 278 275 275 276 276 274 276 283 289 292 293 294 295 291 278 272 271 258 250 252 253 255 257 256 255 256 258 254 252 253 253 253 255 257 254 249 248 247 242 238 237 237 239 242 243 240 240 244 250 253 255 257 258 264 271 274 275 278 282 284 286
285 279 276 275 277 278 279 278 279 284 289 291 293 297 299 283 266 262 253 247 249 250 253 254 253 250 248 250 249 249 252 251 253 256 257 255 251 250 246 241 240 240 237 236 237 236 235 237 243 247 249 252 255 257 262 267 269 270 275 280 282 285
287 279 275 274 275 278 280 280 278 279 285 292 296 299 300 284 257 253 249 245 246 249 254 254 251 246 241 244 245 247 251 250 252 254 255 254 253 251 244 239 243 244 240 238 234 231 232 236 241 245 247 248 251 255 258 262 263 266 274 280 281 284
285 278 274 271 271 273 276 278 276 274 278 289 302 305 298 281 257 251 248 244 244 248 252 251 250 245 238 238 242 246 251 251 251 252 252 252 252 250 240 238 247 249 247 243 235 230 230 234 239 243 244 244 248 252 254 257 261 265 271 277 281 285
279 275 272 271 269 269 271 273 271 268 269 281 299 306 294 275 258 252 249 244 244 246 247 248 248 245 239 237 240 245 250 251 249 250 250 249 250 246 237 238 247 250 248 245 239 234 231 234 238 241 243 243 246 249 252 258 263 265 270 276 279 283
270 269 268 267 265 263 264 265 263 260 262 271 285 298 292 272 258 252 249 243 241 242 244 246 244 239 239 239 240 243 247 248 247 248 248 246 245 241 235 237 245 250 248 245 244 241 236 236 238 240 242 243 245 248 252 258 261 264 269 272 274 277
273 273 272 271 267 262 260 257 256 256 258 265 276 290 292 271 259 253 248 245 240 236 239 243 239 238 241 242 244 246 247 247 247 246 245 243 241 237 234 237 242 247 249 248 248 245 240 240 239 240 242 244 245 247 251 255 259 262 265 268 270 273
273 274 273 274 273 267 262 256 254 255 257 260 267 279 284 268 260 251 244 247 242 233 234 237 236 238 242 243 246 248 247 247 247 245 242 241 240 236 236 239 241 244 248 250 249 246 243 243 242 241 243 245 245 247 248 252 257 260 263 267 269 270
286 289 284 286 291 283 276 268 259 257 257 258 260 265 270 268 269 261 249 249 246 236 233 234 236 239 240 241 244 247 247 244 244 242 238 239 240 236 236 240 242 243 247 250 250 248 246 246 244 241 242 244 244 246 248 251 255 257 260 263 264 264
294 296 289 294 310 307 295 283 272 263 257 256 258 261 263 262 265 270 259 251 247 242 237 235 237 238 239 240 242 246 246 242 241 239 236 238 239 238 238 242 245 244 245 248 249 247 246 245 243 242 242 243 243 246 248 251 253 255 257 260 262 263
285 283 278 286 306 316 304 284 276 272 264 257 256 260 264 262 258 257 255 253 249 243 240 240 240 240 239 238 241 244 244 242 240 237 237 239 239 239 241 243 247 246 244 245 246 245 244 244 243 242 243 243 245 247 248 250 252 254 255 258 261 262
282 278 277 284 300 314 312 282 272 274 273 265 258 257 260 260 257 254 251 254 253 243 240 241 242 243 241 238 238 241 241 241 239 236 238 238 237 238 241 243 247 249 247 245 244 242 243 244 243 243 244 245 246 247 248 248 250 252 254 256 259 260
282 278 276 279 292 308 314 301 275 268 272 270 264 259 255 253 255 258 252 248 250 244 241 242 242 244 245 242 239 239 238 237 236 234 235 236 235 237 240 242 244 247 249 246 243 242 242 242 242 244 246 246 247 248 248 248 249 251 254 256 256 255
279 277 275 274 283 300 307 304 285 263 257 261 262 260 255 250 252 254 247 244 246 243 241 244 246 246 247 244 240 236 234 234 233 232 233 235 236 237 240 242 240 243 248 247 244 242 241 241 242 246 248 247 247 247 248 248 249 251 254 255 253 252
279 275 274 272 272 282 294 296 284 263 248 245 251 255 254 251 248 244 240 243 247 245 241 242 244 243 241 241 239 234 232 231 232 233 233 234 237 239 241 241 239 243 249 249 245 242 241 240 240 244 247 246 246 248 249 250 251 252 253 254 253 252
286 280 277 275 270 268 277 284 273 257 246 242 242 246 249 249 246 242 237 236 240 241 239 237 238 239 239 239 241 240 237 235 235 237 237 238 239 240 241 241 239 243 248 249 246 243 243 243 240 241 244 245 246 248 250 251 252 253 254 255 254 253
289 284 278 278 274 265 265 270 262 251 247 244 241 242 247 250 251 252 247 239 238 237 235 234 234 238 239 238 238 240 240 239 238 241 242 242 242 241 240 240 238 240 244 246 245 243 244 244 242 241 243 244 247 249 250 251 252 253 254 254 254 254
286 282 277 276 276 267 261 261 257 251 248 247 245 247 254 255 254 258 258 252 249 244 237 236 235 236 239 239 238 237 236 237 238 241 243 243 242 240 239 240 239 239 241 241 242 242 243 244 244 243 243 243 245 247 249 251 253 254 254 254 255 256
281 278 276 275 275 269 263 264 262 255 251 250 249 252 259 258 252 253 254 252 252 248 242 241 239 238 239 240 241 241 239 237 237 238 241 244 245 243 241 242 241 240 240 239 237 238 240 242 242 243 243 242 243 245 248 251 254 255 256 256 257 258
278 275 275 273 273 270 267 265 262 257 254 254 253 254 258 260 257 254 251 249 249 248 246 244 240 239 239 238 240 243 242 240 238 238 239 242 246 247 244 243 242 241 242 241 240 238 238 239 239 241 242 242 243 245 248 251 253 255 256 257 258 259
278 276 274 270 268 267 267 266 261 257 257 257 257 256 257 259 261 259 256 253 251 250 250 247 242 240 240 238 238 241 243 243 242 242 241 240 243 246 244 242 242 243 242 242 242 240 239 238 237 239 242 242 243 245 248 250 252 254 255 257 258 259
281 280 278 272 266 264 265 264 259 256 255 256 258 259 257 256 257 259 260 258 254 253 252 250 246 243 242 241 240 242 243 243 243 244 244 242 240 242 243 242 242 243 242 240 239 237 237 238 237 239 242 243 243 245 247 249 251 252 254 256 258 259
Height
5855 5855 5855 5855 5855 5856 5856 5856 5855 5855 5855 5855 5855 5856 5856 5856 5855 5855 5855 5854 5854 5854 5854 5854 5853 5852 5852 5852 5852 5853 5854 5854 5854 5855 5854 5852 5850 5851 5851 5851 5851 5851 5851 5851 5850 5850 5850 5850 5849 5848 5848 5848 5848 5848 5848 5847 5847 5846 5846 5845 5845 5845
5853 5852 5852 5853 5853 5853 5854 5854 5854 5853 5853 5853 5854 5854 5854 5854 5854 5853 5853 5853 5852 5853 5853 5853 5853 5852 5851 5850 5850 5851 5852 5853 5853 5853 5853 5851 5849 5849 5850 5851 5850 5850 5851 5850 5850 5849 5849 5849 5848 5848 5848 5848 5847 5847 5847 5846 5846 5845 5845 5845 5844 5844
5851 5850 5850 5850 5851 5851 5852 5851 5851 5851 5851 5852 5852 5852 5852 5852 5852 5852 5852 5851 5851 5851 5851 5851 5851 5850 5849 5849 5848 5849 5850 5851 5851 5851 5852 5851 5848 5847 5848 5849 5849 5849 5849 5849 5849 5849 5848 5848 5848 5847 5847 5847 5847 5846 5846 5845 5845 5844 5844 5844 5844 5843
5849 5848 5848 5848 5849 5849 5850 5849 5849 5849 5850 5850 5850 5850 5850 5850 5850 5849 5849 5850 5849 5849 5849 5849 5849 5849 5848 5848 5847 5847 5848 5849 5850 5850 5850 5849 5848 5846 5846 5848 5848 5848 5848 5848 5848 5848 5848 5847 5847 5846 5846 5846 5846 5846 5845 5845 5844 5844 5843 5843 5843 5842
5846 5846 5846 5846 5847 5847 5847 5847 5847 5848 5848 5848 5848 5848 5848 5848 5848 5847 5847 5847 5847 5847 5847 5847 5847 5847 5847 5847 5846 5845 5846 5847 5848 5848 5849 5848 5847 5845 5845 5845 5846 5847 5847 5847 5847 5847 5846 5846 5846 5846 5845 5845 5845 5845 5844 5844 5843 5843 5843 5842 5842 5841
5844 5844 5843 5844 5844 5845 5845 5845 5846 5846 5846 5846 5846 5846 5846 5846 5846 5845 5845 5845 5845 5845 5845 5845 5845 5845 5845 5845 5845 5844 5844 5845 5846 5847 5847 5847 5846 5845 5844 5844 5844 5845 5845 5846 5846 5845 5845 5845 5845 5845 5845 5845 5845 5844 5844 5843 5843 5842 5842 5841 5841 5841
5843 5842 5841 5841 5842 5843 5843 5844 5844 5844 5844 5844 5844 5844 5844 5844 5844 5844 5843 5843 5843 5842 5843 5843 5843 5843 5843 5843 5843 5843 5843 5843 5844 5845 5845 5845 5845 5844 5843 5843 5843 5843 5844 5844 5844 5844 5844 5844 5844 5844 5844 5844 5844 5844 5843 5843 5842 5842 5841 5841 5840 5840
5841 5840 5840 5840 5841 5841 5841 5842 5842 5842 5842 5842 5842 5842 5843 5842 5842 5842 5841 5841 5840 5840 5840 5841 5841 5841 5841 5841 5841 5841 5841 5841 5842 5842 5843 5843 5843 5843 5843 5842 5842 5842 5842 5842 5843 5843 5843 5843 5843 5843 5843 5843 5843 5843 5842 5842 5842 5841 5841 5840 5840 5839
5840 5839 5839 5839 5839 5838 5838 5839 5839 5840 5840 5840 5840 5840 5840 5840 5840 5839 5839 5838 5838 5838 5838 5839 5839 5839 5839 5839 5839 5840 5840 5840 5840 5840 5841 5841 5842 5842 5842 5841 5841 5841 5841 5841 5841 5841 5842 5842 5842 5842 5842 5842 5842 5842 5841 5841 5841 5841 5840 5840 5839 5838
5839 5838 5837 5837 5836 5836 5836 5837 5838 5838 5838 5838 5838 5838 5838 5837 5837 5836 5836 5835 5836 5836 5836 5837 5837 5837 5837 5837 5837 5838 5838 5838 5838 5839 5839 5840 5840 5841 5840 5840 5840 5839 5839 5839 5839 5840 5840 5841 5841 5841 5841 5841 5840 5840 5840 5840 5840 5840 5839 5839 5838 5837
5837 5837 5836 5835 5835 5835 5835 5836 5836 5836 5835 5835 5835 5835 5835 5834 5834 5833 5833 5833 5833 5834 5834 5835 5835 5835 5835 5835 5835 5835 5836 5836 5836 5837 5837 5838 5839 5839 5839 5839 5838 5838 5838 5838 5838 5838 5839 5839 5840 5840 5840 5839 5839 5839 5839 5839 5839 5839 5838 5838 5837 5836
5836 5835 5835 5834 5834 5834 5834 5834 5833 5833 5832 5831 5831 5831 5831 5831 5831 5831 5830 5830 5831 5831 5832 5833 5833 5833 5834 5834 5834 5834 5834 5834 5834 5835 5835 5836 5837 5837 5837 5837 5837 5837 5837 5837 5837 5837 5837 5838 5838 5839 5839 5838 5838 5838 5838 5838 5838 5838 5837 5837 5836 5835
5834 5833 5832 5832 5832 5832 5832 5832 5831 5829 5828 5827 5827 5827 5827 5827 5828 5828 5827 5828 5828 5829 5829 5831 5831 5832 5832 5832 5832 5832 5832 5832 5833 5833 5833 5833 5834 5835 5835 5836 5835 5835 5835 5835 5836 5836 5836 5836 5837 5837 5837 5837 5837 5837 5837 5837 5837 5837 5836 5835 5835 5834
5831 5830 5830 5829 5829 5829 5830 5829 5828 5827 5825 5824 5824 5824 5824 5824 5824 5824 5824 5824 5825 5826 5827 5828 5829 5830 5830 5831 5831 5831 5830 5831 5831 5831 5831 5831 5832 5833 5834 5834 5834 5834 5834 5834 5834 5835 5835 5835 5835 5835 5835 5836 5836 5836 5835 5835 5836 5836 5835 5835 5834 5833
5828 5828 5827 5827 5827 5827 5827 5827 5826 5825 5823 5822 5822 5822 5821 5821 5821 5821 5820 5821 5822 5824 5825 5826 5827 5827 5828 5829 5829 5829 5829 5829 5829 5829 5829 5829 5830 5830 5831 5832 5833 5833 5832 5832 5832 5833 5833 5834 5834 5834 5834 5834 5834 5834 5834 5834 5835 5835 5834 5834 5833 5832
5826 5825 5825 5825 5825 5825 5825 5825 5823 5822 5821 5820 5820 5820 5819 5817 5817 5818 5817 5818 5819 5821 5822 5824 5825 5825 5826 5827 5827 5828 5828 5828 5828 5827 5827 5827 5828 5828 5829 5830 5830 5831 5831 5831 5831 5831 5831 5832 5832 5832 5832 5833 5833 5833 5833 5833 5834 5833 5833 5833 5832 5832
5823 5822 5822 5822 5822 5822 5822 5822 5821 5820 5819 5818 5818 5817 5816 5814 5814 5814 5815 5815 5817 5818 5820 5821 5822 5823 5824 5825 5826 5826 5826 5826 5826 5826 5825 5825 5826 5826 5827 5827 5828 5829 5829 5829 5829 5829 5830 5830 5831 5831 5831 5831 5831 5831 5832 5832 5833 5832 5832 5832 5832 5831
5820 5819 5819 5819 5819 5819 5819 5818 5818 5817 5816 5815 5815 5814 5813 5812 5811 5812 5813 5813 5814 5816 5817 5819 5820 5821 5822 5823 5824 5824 5824 5824 5824 5824 5823 5823 5824 5824 5825 5825 5826 5827 5827 5828 5828 5828 5828 5829 5829 5829 5830 5830 5829 5830 5830 5831 5831 5831 5831 5831 5831 5830
5816 5815 5815 5815 5816 5816 5816 5815 5814 5814 5813 5813 5812 5811 5811 5810 5810 5811 5811 5811 5812 5813 5815 5816 5818 5819 5820 5820 5821 5822 5822 5823 5823 5822 5822 5821 5822 5822 5823 5824 5825 5825 5826 5826 5826 5826 5826 5827 5827 5828 5828 5828 5828 5828 5829 5829 5830 5830 5830 5830 5830 5829
5812 5811 5811 5812 5812 5813 5813 5812 5811 5811 5810 5810 5809 5809 5809 5809 5809 5809 5809 5809 5809 5810 5812 5814 5816 5817 5818 5818 5819 5819 5820 5821 5821 5820 5820 5820 5820 5821 5821 5822 5823 5824 5824 5824 5825 5825 5825 5825 5826 5826 5826 5827 5827 5827 5827 5828 5828 5829 5829 5829 5828 5828
5807 5807 5807 5807 5808 5809 5809 5808 5808 5807 5807 5807 5807 5806 5806 5807 5807 5807 5807 5807 5807 5808 5810 5812 5813 5815 5815 5815 5816 5817 5818 5818 5818 5818 5818 5818 5818 5819 5819 5821 5821 5822 5822 5823 5823 5824 5824 5824 5824 5824 5825 5825 5825 5825 5826 5827 5827 5827 5827 5827 5827 5827
5805 5805 5805 5805 5806 5806 5806 5806 5805 5804 5805 5805 5804 5804 5804 5805 5806 5806 5805 5805 5805 5805 5807 5809 5810 5812 5812 5812 5813 5814 5815 5816 5816 5816 5816 5816 5816 5817 5817 5818 5819 5820 5821 5822 5822 5823 5823 5822 5822 5823 5823 5824 5824 5824 5825 5825 5825 5826 5826 5826 5826 5826
5804 5804 5805 5804 5805 5805 5805 5804 5803 5803 5803 5803 5803 5802 5802 5802 5803 5804 5804 5803 5804 5804 5804 5805 5807 5808 5809 5809 5810 5811 5813 5813 5813 5813 5813 5813 5814 5815 5815 5816 5817 5818 5819 5820 5821 5821 5821 5821 5821 5821 5821 5822 5822 5823 5823 5823 5824 5824 5825 5825 5825 5825
5804 5805 5805 5805 5806 5806 5805 5804 5802 5802 5802 5802 5801 5800 5800 5800 5801 5802 5802 5802 5802 5802 5802 5803 5804 5805 5806 5806 5807 5808 5811 5811 5810 5811 5811 5811 5811 5813 5814 5814 5815 5816 5817 5818 5818 5819 5820 5819 5820 5820 5820 5820 5820 5821 5821 5822 5823 5823 5823 5823 5823 5823
5802 5803 5803 5804 5804 5804 5804 5803 5802 5801 5800 5800 5800 5799 5800 5799 5799 5800 5800 5799 5799 5799 5799 5799 5801 5802 5803 5804 5804 5806 5808 5808 5808 5809 5808 5808 5809 5810 5812 5813 5813 5814 5815 5815 5816 5817 5818 5818 5818 5818 5818 5818 5818 5819 5820 5821 5821 5821 5822 5821 5821 5822
5800 5800 5799 5800 5800 5800 5801 5801 5801 5800 5799 5799 5798 5798 5799 5798 5797 5796 5796 5797 5797 5796 5796 5796 5796 5797 5799 5800 5801 5802 5804 5805 5806 5806 5806 5806 5807 5809 5810 5811 5811 5812 5813 5814 5814 5815 5816 5816 5817 5817 5817 5817 5817 5817 5818 5819 5819 5820 5820 5820 5820 5821
5797 5797 5797 5798 5798 5798 5798 5798 5799 5799 5799 5799 5797 5797 5796 5795 5793 5792 5792 5794 5795 5794 5793 5793 5793 5793 5794 5796 5797 5799 5800 5801 5802 5803 5803 5804 5805 5807 5808 5808 5809 5810 5811 5812 5812 5813 5814 5814 5815 5815 5815 5815 5816 5816 5817 5817 5818 5818 5818 5819 5819 5819
5794 5795 5795 5795 5796 5796 5795 5795 5796 5796 5797 5797 5796 5795 5792 5791 5790 5790 5791 5792 5791 5791 5791 5791 5791 5791 5792 5794 5796 5797 5797 5798 5799 5800 5801 5802 5803 5804 5806 5807 5808 5808 5808 5809 5810 5810 5812 5813 5813 5813 5814 5814 5814 5814 5815 5816 5816 5816 5817 5817 5817 5817
5792 5792 5792 5792 5793 5793 5793 5793 5793 5793 5793 5793 5793 5792 5789 5788 5788 5789 5790 5789 5787 5787 5788 5789 5789 5790 5792 5793 5793 5794 5794 5795 5796 5797 5798 5800 5801 5802 5802 5804 5805 5805 5805 5806 5807 5808 5809 5810 5811 5811 5812 5812 5812 5813 5813 5814 5815 5815 5815 5815 5815 5815
5791 5790 5790 5789 5789 5789 5790 5790 5790 5789 5789 5789 5788 5787 5786 5785 5785 5786 5786 5786 5785 5785 5785 5786 5786 5786 5788 5789 5789 5789 5791 5792 5793 5794 5796 5797 5799 5800 5799 5800 5802 5802 5803 5804 5805 5806 5807 5807 5808 5809 5810 5810 5811 5811 5812 5812 5813 5813 5813 5813 5813 5814
5788 5787 5787 5786 5785 5785 5786 5786 5786 5785 5784 5783 5783 5782 5782 5782 5782 5783 5783 5782 5782 5782 5781 5781 5782 5782 5784 5785 5786 5787 5789 5790 5791 5792 5794 5795 5797 5798 5797 5797 5799 5800 5801 5801 5802 5803 5804 5805 5806 5806 5807 5808 5809 5810 5810 5811 5811 5811 5811 5811 5812 5812
5784 5784 5783 5782 5781 5781 5781 5782 5782 5781 5780 5779 5778 5777 5777 5778 5779 5780 5780 5780 5779 5779 5778 5777 5778 5779 5780 5781 5782 5783 5785 5786 5789 5790 5792 5793 5794 5794 5795 5795 5796 5797 5797 5798 5799 5801 5802 5802 5803 5804 5805 5806 5807 5808 5808 5809 5809 5809 5809 5809 5810 5810
5780 5780 5779 5779 5778 5777 5778 5778 5778 5777 5775 5774 5773 5773 5774 5775 5776 5776 5777 5778 5778 5778 5777 5776 5775 5776 5777 5778 5778 5779 5780 5782 5784 5786 5787 5788 5788 5790 5792 5793 5794 5794 5794 5795 5797 5797 5798 5799 5800 5801 5802 5803 5804 5805 5806 5807 5807 5807 5807 5807 5808 5808
5776 5776 5775 5775 5774 5774 5774 5774 5773 5773 5772 5770 5769 5769 5771 5771 5771 5772 5773 5774 5774 5775 5774 5773 5772 5772 5773 5775 5776 5776 5777 5778 5780 5781 5783 5783 5784 5787 5790 5791 5791 5791 5791 5792 5793 5793 5794 5796 5797 5798 5799 5800 5802 5803 5804 5805 5805 5805 5805 5805 5806 5806
5773 5772 5771 5770 5769 5769 5770 5769 5769 5768 5768 5767 5766 5765 5766 5767 5768 5768 5769 5769 5770 5770 5770 5769 5769 5769 5769 5771 5773 5773 5774 5775 5776 5777 5779 5780 5781 5785 5787 5787 5787 5788 5789 5790 5790 5790 5791 5792 5794 5795 5796 5797 5799 5800 5801 5802 5803 5803 5803 5803 5804 5804
5769 5768 5768 5766 5765 5765 5765 5764 5764 5764 5763 5763 5762 5762 5762 5763 5764 5765 5766 5766 5766 5766 5766 5765 5766 5767 5767 5768 5769 5770 5771 5772 5773 5774 5775 5777 5779 5781 5782 5784 5785 5785 5786 5787 5787 5788 5790 5790 5791 5792 5793 5795 5796 5797 5799 5800 5800 5801 5801 5801 5801 5802
5764 5764 5763 5762 5761 5761 5760 5760 5759 5759 5759 5759 5759 5759 5759 5759 5760 5761 5762 5763 5763 5763 5762 5762 5763 5765 5766 5765 5766 5767 5768 5769 5770 5771 5772 5774 5775 5776 5778 5780 5781 5782 5782 5783 5784 5786 5787 5787 5788 5789 5791 5792 5793 5794 5796 5797 5797 5798 5798 5798 5799 5799